Time,TemperatureF,DewpointF,PressureIn,WindDirection,WindDirectionDegrees,WindSpeedMPH,WindSpeedGustMPH,Humidity,HourlyPrecipIn,Conditions,Clouds,dailyrainin,SoftwareType,DateUTC
2013-05-31 00:00:00,63.8,60.2,30.03,West,259,0.0,0.0,88,0.00,,,0.00,VWS V14.01,2013-05-31 04:00:00,
2013-05-31 00:01:00,64.0,60.4,30.02,West,259,0.0,0.0,88,0.00,,CLR,0.00,VWS V14.01,2013-05-31 04:01:00,
2013-05-31 00:06:00,63.8,60.2,30.02,West,259,0.0,0.0,88,0.00,,CLR,0.00,VWS V14.01,2013-05-31 04:06:00,
2013-05-31 00:10:00,63.6,60.0,30.03,West,259,0.0,0.0,88,0.00,,,0.00,VWS V14.01,2013-05-31 04:10:00,
2013-05-31 00:11:00,63.8,60.2,30.03,West,259,0.0,0.0,88,0.00,,CLR,0.00,VWS V14.01,2013-05-31 04:11:00,
2013-05-31 00:17:00,63.6,60.0,30.03,West,259,0.0,0.0,88,0.00,,CLR,0.00,VWS V14.01,2013-05-31 04:17:00,
2013-05-31 00:20:00,63.2,59.9,30.03,West,259,0.0,2.0,89,0.00,,,0.00,VWS V14.01,2013-05-31 04:20:00,
2013-05-31 00:22:00,63.4,59.8,30.03,West,259,0.0,0.0,88,0.00,,CLR,0.00,VWS V14.01,2013-05-31 04:22:00,
2013-05-31 00:27:00,63.2,59.9,30.03,West,259,1.0,2.0,89,0.00,,CLR,0.00,VWS V14.01,2013-05-31 04:27:00,
2013-05-31 00:30:00,62.5,59.5,30.03,West,259,1.0,2.0,90,0.00,,,0.00,VWS V14.01,2013-05-31 04:30:00,
2013-05-31 00:32:00,62.8,59.5,30.03,West,259,1.0,2.0,89,0.00,,CLR,0.00,VWS V14.01,2013-05-31 04:32:00,
2013-05-31 00:37:00,62.5,59.5,30.03,West,259,0.0,2.0,90,0.00,,CLR,0.00,VWS V14.01,2013-05-31 04:37:00,
2013-05-31 00:40:00,62.2,59.5,30.03,West,259,0.0,2.0,91,0.00,,,0.00,VWS V14.01,2013-05-31 04:40:00,
2013-05-31 00:42:00,62.3,59.3,30.03,West,259,0.0,1.0,90,0.00,,CLR,0.00,VWS V14.01,2013-05-31 04:42:00,
2013-05-31 00:47:00,62.3,59.6,30.03,West,259,0.0,2.0,91,0.00,,CLR,0.00,VWS V14.01,2013-05-31 04:47:00,
2013-05-31 00:50:00,61.8,59.2,30.03,West,259,0.0,2.0,91,0.00,,,0.00,VWS V14.01,2013-05-31 04:50:00,
2013-05-31 00:52:00,62.1,59.5,30.03,West,259,0.0,0.0,91,0.00,,CLR,0.00,VWS V14.01,2013-05-31 04:52:00,
2013-05-31 00:57:00,61.8,59.2,30.03,West,259,0.0,2.0,91,0.00,,CLR,0.00,VWS V14.01,2013-05-31 04:57:00,
2013-05-31 01:00:00,61.5,59.2,30.03,West,259,3.0,3.0,92,0.00,,,0.00,VWS V14.01,2013-05-31 05:00:00,
2013-05-31 01:02:00,61.7,59.0,30.03,West,259,2.0,3.0,91,0.00,,CLR,0.00,VWS V14.01,2013-05-31 05:02:00,
2013-05-31 01:07:00,61.5,59.2,30.03,West,259,2.0,3.0,92,0.00,,CLR,0.00,VWS V14.01,2013-05-31 05:07:00,
2013-05-31 01:10:00,61.6,59.3,30.03,West,259,2.0,4.0,92,0.00,,,0.00,VWS V14.01,2013-05-31 05:10:00,
2013-05-31 01:12:00,61.6,59.3,30.03,West,259,2.0,4.0,92,0.00,,CLR,0.00,VWS V14.01,2013-05-31 05:12:00,
2013-05-31 01:17:00,61.6,59.3,30.03,West,259,1.0,4.0,92,0.00,,CLR,0.00,VWS V14.01,2013-05-31 05:17:00,
2013-05-31 01:20:00,61.1,58.8,30.03,West,259,0.0,3.0,92,0.00,,,0.00,VWS V14.01,2013-05-31 05:20:00,
2013-05-31 01:22:00,61.4,59.1,30.03,West,259,1.0,3.0,92,0.00,,CLR,0.00,VWS V14.01,2013-05-31 05:22:00,
2013-05-31 01:27:00,61.2,58.9,30.03,West,259,1.0,3.0,92,0.00,,CLR,0.00,VWS V14.01,2013-05-31 05:27:00,
2013-05-31 01:30:00,60.6,58.6,30.03,West,259,1.0,2.0,93,0.00,,,0.00,VWS V14.01,2013-05-31 05:30:00,
2013-05-31 01:32:00,61.2,59.2,30.03,West,259,0.0,2.0,93,0.00,,CLR,0.00,VWS V14.01,2013-05-31 05:32:00,
2013-05-31 01:37:00,60.6,58.3,30.03,West,259,1.0,2.0,92,0.00,,CLR,0.00,VWS V14.01,2013-05-31 05:37:00,
2013-05-31 01:40:00,60.8,58.8,30.03,West,259,3.0,4.0,93,0.00,,,0.00,VWS V14.01,2013-05-31 05:40:00,
2013-05-31 01:42:00,60.5,58.5,30.03,West,259,3.0,3.0,93,0.00,,CLR,0.00,VWS V14.01,2013-05-31 05:42:00,
2013-05-31 01:47:00,60.8,58.8,30.03,West,259,2.0,4.0,93,0.00,,CLR,0.00,VWS V14.01,2013-05-31 05:47:00,
2013-05-31 01:50:00,61.1,59.1,30.03,West,259,0.0,5.0,93,0.00,,,0.00,VWS V14.01,2013-05-31 05:50:00,
2013-05-31 01:52:00,60.9,58.9,30.03,West,259,2.0,5.0,93,0.00,,CLR,0.00,VWS V14.01,2013-05-31 05:52:00,
2013-05-31 01:57:00,61.1,59.1,30.03,West,259,2.0,5.0,93,0.00,,CLR,0.00,VWS V14.01,2013-05-31 05:57:00,
2013-05-31 02:00:00,60.7,59.0,30.03,West,259,2.0,3.0,94,0.00,,,0.00,VWS V14.01,2013-05-31 06:00:00,
2013-05-31 02:02:00,60.9,58.9,30.03,West,259,0.0,2.0,93,0.00,,CLR,0.00,VWS V14.01,2013-05-31 06:02:00,
2013-05-31 02:07:00,60.7,59.0,30.03,West,259,0.0,3.0,94,0.00,,CLR,0.00,VWS V14.01,2013-05-31 06:07:00,
2013-05-31 02:10:00,60.6,58.9,30.03,WSW,245,3.0,4.0,94,0.00,,,0.00,VWS V14.01,2013-05-31 06:10:00,
2013-05-31 02:12:00,60.7,59.0,30.03,West,259,1.0,3.0,94,0.00,,CLR,0.00,VWS V14.01,2013-05-31 06:12:00,
2013-05-31 02:17:00,60.6,58.9,30.03,WSW,245,3.0,4.0,94,0.00,,CLR,0.00,VWS V14.01,2013-05-31 06:17:00,
2013-05-31 02:20:00,60.5,58.8,30.03,WSW,246,4.0,5.0,94,0.00,,,0.00,VWS V14.01,2013-05-31 06:20:00,
2013-05-31 02:22:00,60.6,58.9,30.03,WSW,245,4.0,4.0,94,0.00,,CLR,0.00,VWS V14.01,2013-05-31 06:22:00,
2013-05-31 02:27:00,60.5,58.8,30.03,WSW,247,4.0,5.0,94,0.00,,CLR,0.00,VWS V14.01,2013-05-31 06:27:00,
2013-05-31 02:30:00,60.7,59.0,30.03,WSW,257,2.0,5.0,94,0.00,,,0.00,VWS V14.01,2013-05-31 06:30:00,
2013-05-31 02:32:00,60.7,59.0,30.03,WSW,247,3.0,5.0,94,0.00,,CLR,0.00,VWS V14.01,2013-05-31 06:32:00,
2013-05-31 02:37:00,60.7,59.0,30.03,WSW,257,2.0,5.0,94,0.00,,CLR,0.00,VWS V14.01,2013-05-31 06:37:00,
2013-05-31 02:40:00,60.8,59.1,30.03,WSW,257,2.0,4.0,94,0.00,,,0.00,VWS V14.01,2013-05-31 06:40:00,
2013-05-31 02:42:00,60.7,59.0,30.03,WSW,257,3.0,4.0,94,0.00,,CLR,0.00,VWS V14.01,2013-05-31 06:42:00,
2013-05-31 02:47:00,60.8,59.1,30.03,WSW,257,3.0,4.0,94,0.00,,CLR,0.00,VWS V14.01,2013-05-31 06:47:00,
2013-05-31 02:50:00,60.7,59.0,30.03,WSW,257,3.0,4.0,94,0.00,,,0.00,VWS V14.01,2013-05-31 06:50:00,
2013-05-31 02:52:00,60.8,59.1,30.03,WSW,257,3.0,4.0,94,0.00,,CLR,0.00,VWS V14.01,2013-05-31 06:52:00,
2013-05-31 02:57:00,60.7,59.0,30.03,WSW,257,3.0,4.0,94,0.00,,CLR,0.00,VWS V14.01,2013-05-31 06:57:00,
2013-05-31 03:00:00,60.4,58.7,30.03,WSW,257,1.0,5.0,94,0.00,,,0.00,VWS V14.01,2013-05-31 07:00:00,
2013-05-31 03:02:00,60.5,58.8,30.03,WSW,257,4.0,5.0,94,0.00,,CLR,0.00,VWS V14.01,2013-05-31 07:02:00,
2013-05-31 03:07:00,60.4,58.7,30.03,WSW,257,3.0,5.0,94,0.00,,CLR,0.00,VWS V14.01,2013-05-31 07:07:00,
2013-05-31 03:10:00,60.2,58.5,30.03,WSW,257,3.0,4.0,94,0.00,,,0.00,VWS V14.01,2013-05-31 07:10:00,
2013-05-31 03:12:00,60.4,58.7,30.03,WSW,257,3.0,4.0,94,0.00,,CLR,0.00,VWS V14.01,2013-05-31 07:12:00,
2013-05-31 03:17:00,60.2,58.5,30.03,WSW,257,3.0,4.0,94,0.00,,CLR,0.00,VWS V14.01,2013-05-31 07:17:00,
2013-05-31 03:20:00,59.5,57.8,30.03,WSW,257,2.0,4.0,94,0.00,,,0.00,VWS V14.01,2013-05-31 07:20:00,
2013-05-31 03:22:00,59.9,58.2,30.03,WSW,257,2.0,4.0,94,0.00,,CLR,0.00,VWS V14.01,2013-05-31 07:22:00,
2013-05-31 03:27:00,59.5,57.8,30.03,WSW,257,3.0,4.0,94,0.00,,CLR,0.00,VWS V14.01,2013-05-31 07:27:00,
2013-05-31 03:30:00,59.3,57.9,30.03,WSW,257,2.0,4.0,95,0.00,,,0.00,VWS V14.01,2013-05-31 07:30:00,
2013-05-31 03:32:00,59.4,58.0,30.03,WSW,257,3.0,4.0,95,0.00,,CLR,0.00,VWS V14.01,2013-05-31 07:32:00,
2013-05-31 03:37:00,59.4,58.0,30.03,WSW,257,2.0,4.0,95,0.00,,CLR,0.00,VWS V14.01,2013-05-31 07:37:00,
2013-05-31 03:40:00,59.6,58.2,30.03,WSW,257,2.0,3.0,95,0.00,,,0.00,VWS V14.01,2013-05-31 07:40:00,
2013-05-31 03:42:00,59.5,58.1,30.03,WSW,257,2.0,3.0,95,0.00,,CLR,0.00,VWS V14.01,2013-05-31 07:42:00,
2013-05-31 03:47:00,59.6,58.2,30.03,WSW,257,2.0,3.0,95,0.00,,CLR,0.00,VWS V14.01,2013-05-31 07:47:00,
2013-05-31 03:50:00,59.8,58.4,30.03,WSW,257,3.0,3.0,95,0.00,,,0.00,VWS V14.01,2013-05-31 07:50:00,
2013-05-31 03:52:00,59.7,58.3,30.03,WSW,257,2.0,3.0,95,0.00,,CLR,0.00,VWS V14.01,2013-05-31 07:52:00,
2013-05-31 03:57:00,59.9,58.5,30.03,WSW,257,2.0,3.0,95,0.00,,CLR,0.00,VWS V14.01,2013-05-31 07:57:00,
2013-05-31 04:00:00,59.5,58.1,30.03,WSW,257,1.0,3.0,95,0.00,,,0.00,VWS V14.01,2013-05-31 08:00:00,
2013-05-31 04:02:00,59.6,58.2,30.03,WSW,257,2.0,3.0,95,0.00,,CLR,0.00,VWS V14.01,2013-05-31 08:02:00,
2013-05-31 04:07:00,59.5,58.1,30.03,WSW,257,1.0,3.0,95,0.00,,CLR,0.00,VWS V14.01,2013-05-31 08:07:00,
2013-05-31 04:10:00,59.5,58.1,30.03,WSW,257,0.0,3.0,95,0.00,,,0.00,VWS V14.01,2013-05-31 08:10:00,
2013-05-31 04:12:00,59.6,58.2,30.03,WSW,257,2.0,3.0,95,0.00,,CLR,0.00,VWS V14.01,2013-05-31 08:12:00,
2013-05-31 04:17:00,59.5,58.1,30.03,WSW,257,0.0,3.0,95,0.00,,CLR,0.00,VWS V14.01,2013-05-31 08:17:00,
2013-05-31 04:20:00,59.3,57.9,30.03,WSW,257,3.0,4.0,95,0.00,,,0.00,VWS V14.01,2013-05-31 08:20:00,
2013-05-31 04:22:00,59.3,57.9,30.03,WSW,257,2.0,4.0,95,0.00,,CLR,0.00,VWS V14.01,2013-05-31 08:22:00,
2013-05-31 04:27:00,59.3,57.9,30.03,WSW,257,3.0,4.0,95,0.00,,CLR,0.00,VWS V14.01,2013-05-31 08:27:00,
2013-05-31 04:30:00,59.2,57.8,30.03,WSW,257,0.0,3.0,95,0.00,,,0.00,VWS V14.01,2013-05-31 08:30:00,
2013-05-31 04:32:00,59.3,57.9,30.03,WSW,257,2.0,3.0,95,0.00,,CLR,0.00,VWS V14.01,2013-05-31 08:32:00,
2013-05-31 04:37:00,59.2,57.8,30.03,WSW,257,0.0,3.0,95,0.00,,CLR,0.00,VWS V14.01,2013-05-31 08:37:00,
2013-05-31 04:40:00,59.2,57.8,30.03,WSW,257,1.0,3.0,95,0.00,,,0.00,VWS V14.01,2013-05-31 08:40:00,
2013-05-31 04:42:00,59.3,57.9,30.03,WSW,257,1.0,2.0,95,0.00,,CLR,0.00,VWS V14.01,2013-05-31 08:42:00,
2013-05-31 04:48:00,59.2,57.8,30.03,WSW,257,1.0,1.0,95,0.00,,CLR,0.00,VWS V14.01,2013-05-31 08:48:00,
2013-05-31 04:50:00,59.3,57.9,30.02,WSW,257,1.0,3.0,95,0.00,,,0.00,VWS V14.01,2013-05-31 08:50:00,
2013-05-31 04:53:00,59.3,57.9,30.02,WSW,257,1.0,3.0,95,0.00,,CLR,0.00,VWS V14.01,2013-05-31 08:53:00,
2013-05-31 04:58:00,59.3,57.9,30.02,WSW,257,1.0,1.0,95,0.00,,CLR,0.00,VWS V14.01,2013-05-31 08:58:00,
2013-05-31 05:00:00,59.2,57.8,30.03,WSW,257,2.0,3.0,95,0.00,,,0.00,VWS V14.01,2013-05-31 09:00:00,
2013-05-31 05:03:00,59.2,57.8,30.02,WSW,257,1.0,2.0,95,0.00,,CLR,0.00,VWS V14.01,2013-05-31 09:03:00,
2013-05-31 05:07:00,59.2,57.8,30.03,WSW,257,2.0,3.0,95,0.00,,CLR,0.00,VWS V14.01,2013-05-31 09:07:00,
2013-05-31 05:10:00,58.7,57.3,30.03,WSW,257,0.0,3.0,95,0.00,,,0.00,VWS V14.01,2013-05-31 09:10:00,
2013-05-31 05:13:00,59.0,57.6,30.03,WSW,257,1.0,3.0,95,0.00,,CLR,0.00,VWS V14.01,2013-05-31 09:13:00,
2013-05-31 05:18:00,58.7,57.3,30.03,WSW,257,0.0,0.0,95,0.00,,CLR,0.00,VWS V14.01,2013-05-31 09:18:00,
2013-05-31 05:20:00,59.1,57.7,30.03,WSW,257,1.0,2.0,95,0.00,,,0.00,VWS V14.01,2013-05-31 09:20:00,
2013-05-31 05:23:00,58.7,57.3,30.03,WSW,257,1.0,2.0,95,0.00,,CLR,0.00,VWS V14.01,2013-05-31 09:23:00,
2013-05-31 05:28:00,59.1,57.7,30.03,WSW,257,1.0,2.0,95,0.00,,CLR,0.00,VWS V14.01,2013-05-31 09:28:00,
2013-05-31 05:30:00,57.7,56.3,30.04,WSW,257,1.0,2.0,95,0.00,,,0.00,VWS V14.01,2013-05-31 09:30:00,
2013-05-31 05:33:00,58.4,57.0,30.03,WSW,257,0.0,2.0,95,0.00,,CLR,0.00,VWS V14.01,2013-05-31 09:33:00,
2013-05-31 05:38:00,57.8,56.4,30.04,WSW,257,1.0,2.0,95,0.00,,CLR,0.00,VWS V14.01,2013-05-31 09:38:00,
2013-05-31 05:40:00,58.6,57.2,30.04,WSW,257,0.0,2.0,95,0.00,,,0.00,VWS V14.01,2013-05-31 09:40:00,
2013-05-31 05:43:00,58.8,57.4,30.04,WSW,257,0.0,2.0,95,0.00,,CLR,0.00,VWS V14.01,2013-05-31 09:43:00,
2013-05-31 05:48:00,58.6,57.2,30.04,WSW,257,1.0,1.0,95,0.00,,CLR,0.00,VWS V14.01,2013-05-31 09:48:00,
2013-05-31 05:50:00,58.9,57.5,30.04,WSW,257,0.0,2.0,95,0.00,,,0.00,VWS V14.01,2013-05-31 09:50:00,
2013-05-31 05:53:00,58.9,57.5,30.04,WSW,257,0.0,2.0,95,0.00,,CLR,0.00,VWS V14.01,2013-05-31 09:53:00,
2013-05-31 05:58:00,58.9,57.5,30.04,WSW,257,0.0,0.0,95,0.00,,CLR,0.00,VWS V14.01,2013-05-31 09:58:00,
2013-05-31 06:00:00,58.6,57.2,30.04,WSW,257,0.0,2.0,95,0.00,,,0.00,VWS V14.01,2013-05-31 10:00:00,
2013-05-31 06:03:00,58.7,57.3,30.04,WSW,257,0.0,0.0,95,0.00,,CLR,0.00,VWS V14.01,2013-05-31 10:03:00,
2013-05-31 06:08:00,58.6,57.2,30.04,WSW,257,1.0,1.0,95,0.00,,CLR,0.00,VWS V14.01,2013-05-31 10:08:00,
2013-05-31 06:10:00,58.2,56.8,30.04,WSW,257,3.0,3.0,95,0.00,,,0.00,VWS V14.01,2013-05-31 10:10:00,
2013-05-31 06:13:00,58.1,56.7,30.04,WSW,257,2.0,3.0,95,0.00,,CLR,0.00,VWS V14.01,2013-05-31 10:13:00,
2013-05-31 06:18:00,58.1,56.7,30.04,WSW,257,3.0,4.0,95,0.00,,CLR,0.00,VWS V14.01,2013-05-31 10:18:00,
2013-05-31 06:20:00,58.2,56.8,30.05,WSW,257,2.0,4.0,95,0.00,,,0.00,VWS V14.01,2013-05-31 10:20:00,
2013-05-31 06:23:00,57.8,56.4,30.05,WSW,257,2.0,4.0,95,0.00,,CLR,0.00,VWS V14.01,2013-05-31 10:23:00,
2013-05-31 06:28:00,58.2,56.8,30.05,WSW,257,2.0,2.0,95,0.00,,CLR,0.00,VWS V14.01,2013-05-31 10:28:00,
2013-05-31 06:30:00,58.5,57.4,30.04,WSW,257,0.0,2.0,96,0.00,,,0.00,VWS V14.01,2013-05-31 10:30:00,
2013-05-31 06:33:00,58.6,57.5,30.05,WSW,257,0.0,2.0,96,0.00,,CLR,0.00,VWS V14.01,2013-05-31 10:33:00,
2013-05-31 06:38:00,58.4,57.3,30.04,WSW,257,0.0,1.0,96,0.00,,CLR,0.00,VWS V14.01,2013-05-31 10:38:00,
2013-05-31 06:40:00,58.5,57.4,30.04,WSW,257,0.0,2.0,96,0.00,,,0.00,VWS V14.01,2013-05-31 10:40:00,
2013-05-31 06:43:00,58.5,57.4,30.04,WSW,257,1.0,2.0,96,0.00,,CLR,0.00,VWS V14.01,2013-05-31 10:43:00,
2013-05-31 06:48:00,58.5,57.4,30.04,WSW,257,1.0,1.0,96,0.00,,CLR,0.00,VWS V14.01,2013-05-31 10:48:00,
2013-05-31 06:50:00,58.5,57.4,30.04,WSW,257,1.0,3.0,96,0.00,,,0.00,VWS V14.01,2013-05-31 10:50:00,
2013-05-31 06:53:00,58.4,57.0,30.04,WSW,257,0.0,2.0,95,0.00,,CLR,0.00,VWS V14.01,2013-05-31 10:53:00,
2013-05-31 06:58:00,58.5,57.4,30.04,WSW,257,2.0,2.0,96,0.00,,CLR,0.00,VWS V14.01,2013-05-31 10:58:00,
2013-05-31 07:00:00,58.4,57.0,30.04,WSW,257,1.0,3.0,95,0.00,,,0.00,VWS V14.01,2013-05-31 11:00:00,
2013-05-31 07:03:00,58.3,56.9,30.04,WSW,257,1.0,3.0,95,0.00,,CLR,0.00,VWS V14.01,2013-05-31 11:03:00,
2013-05-31 07:08:00,58.5,57.4,30.04,WSW,257,2.0,2.0,96,0.00,,CLR,0.00,VWS V14.01,2013-05-31 11:08:00,
2013-05-31 07:10:00,59.0,57.9,30.04,WSW,257,1.0,3.0,96,0.00,,,0.00,VWS V14.01,2013-05-31 11:10:00,
2013-05-31 07:13:00,59.0,57.9,30.04,WSW,257,1.0,3.0,96,0.00,,CLR,0.00,VWS V14.01,2013-05-31 11:13:00,
2013-05-31 07:18:00,59.0,57.9,30.04,WSW,257,2.0,2.0,96,0.00,,CLR,0.00,VWS V14.01,2013-05-31 11:18:00,
2013-05-31 07:20:00,59.5,58.4,30.05,WSW,257,2.0,4.0,96,0.00,,,0.00,VWS V14.01,2013-05-31 11:20:00,
2013-05-31 07:23:00,59.2,58.1,30.05,WSW,257,2.0,4.0,96,0.00,,CLR,0.00,VWS V14.01,2013-05-31 11:23:00,
2013-05-31 07:28:00,59.6,58.5,30.05,WSW,257,1.0,3.0,96,0.00,,CLR,0.00,VWS V14.01,2013-05-31 11:28:00,
2013-05-31 07:30:00,60.7,59.6,30.04,WSW,257,3.0,5.0,96,0.00,,,0.00,VWS V14.01,2013-05-31 11:30:00,
2013-05-31 07:33:00,60.3,59.2,30.05,WSW,257,2.0,5.0,96,0.00,,CLR,0.00,VWS V14.01,2013-05-31 11:33:00,
2013-05-31 07:38:00,60.8,59.7,30.04,WSW,257,2.0,3.0,96,0.00,,CLR,0.00,VWS V14.01,2013-05-31 11:38:00,
2013-05-31 07:40:00,61.8,60.4,30.04,WSW,257,1.0,5.0,95,0.00,,,0.00,VWS V14.01,2013-05-31 11:40:00,
2013-05-31 07:43:00,61.4,60.0,30.04,WSW,257,2.0,5.0,95,0.00,,CLR,0.00,VWS V14.01,2013-05-31 11:43:00,
2013-05-31 07:48:00,61.9,60.5,30.04,WSW,257,3.0,3.0,95,0.00,,CLR,0.00,VWS V14.01,2013-05-31 11:48:00,
2013-05-31 07:50:00,63.1,61.3,30.04,WSW,257,2.0,5.0,94,0.00,,,0.00,VWS V14.01,2013-05-31 11:50:00,
2013-05-31 07:53:00,62.6,61.2,30.04,WSW,257,0.0,5.0,95,0.00,,CLR,0.00,VWS V14.01,2013-05-31 11:53:00,
2013-05-31 07:58:00,63.1,61.3,30.04,WSW,257,2.0,2.0,94,0.00,,CLR,0.00,VWS V14.01,2013-05-31 11:58:00,
2013-05-31 08:00:00,63.8,61.7,30.03,WSW,257,3.0,5.0,93,0.00,,,0.00,VWS V14.01,2013-05-31 12:00:00,
2013-05-31 08:03:00,63.4,61.7,30.04,WSW,257,2.0,5.0,94,0.00,,CLR,0.00,VWS V14.01,2013-05-31 12:03:00,
2013-05-31 08:08:00,63.9,61.8,30.03,WSW,257,4.0,4.0,93,0.00,,CLR,0.00,VWS V14.01,2013-05-31 12:08:00,
2013-05-31 08:10:00,64.9,62.5,30.03,WSW,257,0.0,4.0,92,0.00,,,0.00,VWS V14.01,2013-05-31 12:10:00,
2013-05-31 08:13:00,64.3,61.9,30.03,WSW,257,1.0,4.0,92,0.00,,CLR,0.00,VWS V14.01,2013-05-31 12:13:00,
2013-05-31 08:18:00,65.1,62.7,30.03,WSW,257,0.0,0.0,92,0.00,,CLR,0.00,VWS V14.01,2013-05-31 12:18:00,
2013-05-31 08:20:00,65.8,62.8,30.05,WSW,257,0.0,4.0,90,0.00,,,0.00,VWS V14.01,2013-05-31 12:20:00,
2013-05-31 08:23:00,65.3,62.6,30.05,WSW,257,1.0,4.0,91,0.00,,CLR,0.00,VWS V14.01,2013-05-31 12:23:00,
2013-05-31 08:28:00,65.9,62.9,30.05,WSW,257,0.0,0.0,90,0.00,,CLR,0.00,VWS V14.01,2013-05-31 12:28:00,
2013-05-31 08:30:00,66.6,62.9,30.05,WSW,257,1.0,3.0,88,0.00,,,0.00,VWS V14.01,2013-05-31 12:30:00,
2013-05-31 08:34:00,66.4,63.1,30.05,WSW,257,2.0,3.0,89,0.00,,CLR,0.00,VWS V14.01,2013-05-31 12:34:00,
2013-05-31 08:39:00,66.7,63.0,30.05,WSW,257,0.0,2.0,88,0.00,,CLR,0.00,VWS V14.01,2013-05-31 12:39:00,
2013-05-31 08:40:00,68.0,63.7,30.05,WSW,257,1.0,3.0,86,0.00,,,0.00,VWS V14.01,2013-05-31 12:40:00,
2013-05-31 08:44:00,67.6,63.6,30.05,WSW,257,2.0,2.0,87,0.00,,CLR,0.00,VWS V14.01,2013-05-31 12:44:00,
2013-05-31 08:49:00,68.0,63.3,30.05,WSW,257,1.0,2.0,85,0.00,,CLR,0.00,VWS V14.01,2013-05-31 12:49:00,
2013-05-31 08:50:00,69.0,64.0,30.05,WSW,257,0.0,3.0,84,0.00,,,0.00,VWS V14.01,2013-05-31 12:50:00,
2013-05-31 08:54:00,68.4,63.4,30.05,WSW,257,1.0,3.0,84,0.00,,CLR,0.00,VWS V14.01,2013-05-31 12:54:00,
2013-05-31 08:59:00,69.3,64.3,30.05,WSW,257,2.0,3.0,84,0.00,,CLR,0.00,VWS V14.01,2013-05-31 12:59:00,
2013-05-31 09:00:00,70.3,64.2,30.03,WSW,257,1.0,4.0,81,0.00,,,0.00,VWS V14.01,2013-05-31 13:00:00,
2013-05-31 09:04:00,70.0,64.3,30.05,WSW,257,0.0,3.0,82,0.00,,CLR,0.00,VWS V14.01,2013-05-31 13:04:00,
2013-05-31 09:09:00,70.4,64.3,30.03,WSW,257,0.0,2.0,81,0.00,,CLR,0.00,VWS V14.01,2013-05-31 13:09:00,
2013-05-31 09:10:00,71.2,64.7,30.03,WSW,257,0.0,5.0,80,0.00,,,0.00,VWS V14.01,2013-05-31 13:10:00,
2013-05-31 09:14:00,70.6,64.1,30.03,WSW,257,1.0,5.0,80,0.00,,CLR,0.00,VWS V14.01,2013-05-31 13:14:00,
2013-05-31 09:19:00,71.4,64.2,30.03,WSW,257,3.0,4.0,78,0.00,,CLR,0.00,VWS V14.01,2013-05-31 13:19:00,
2013-05-31 09:20:00,72.2,63.8,30.03,WSW,257,1.0,5.0,75,0.00,,,0.00,VWS V14.01,2013-05-31 13:20:00,
2013-05-31 09:24:00,71.9,63.9,30.03,WSW,257,3.0,5.0,76,0.00,,CLR,0.00,VWS V14.01,2013-05-31 13:24:00,
2013-05-31 09:29:00,72.3,63.9,30.03,SE,145,4.0,4.0,75,0.00,,CLR,0.00,VWS V14.01,2013-05-31 13:29:00,
2013-05-31 09:30:00,73.1,64.3,30.03,SSE,158,1.0,4.0,74,0.00,,,0.00,VWS V14.01,2013-05-31 13:30:00,
2013-05-31 09:34:00,72.6,63.8,30.03,SE,146,0.0,4.0,74,0.00,,CLR,0.00,VWS V14.01,2013-05-31 13:34:00,
2013-05-31 09:39:00,73.3,64.5,30.03,SW,217,2.0,3.0,74,0.00,,CLR,0.00,VWS V14.01,2013-05-31 13:39:00,
2013-05-31 09:40:00,73.9,64.3,30.03,SSE,157,0.0,5.0,72,0.00,,,0.00,VWS V14.01,2013-05-31 13:40:00,
2013-05-31 09:44:00,73.5,63.9,30.03,SSW,213,2.0,4.0,72,0.00,,CLR,0.00,VWS V14.01,2013-05-31 13:44:00,
2013-05-31 09:49:00,74.0,64.0,30.03,WSW,241,0.0,4.0,71,0.00,,CLR,0.00,VWS V14.01,2013-05-31 13:49:00,
2013-05-31 09:50:00,74.2,63.8,30.03,SW,216,2.0,5.0,70,0.00,,,0.00,VWS V14.01,2013-05-31 13:50:00,
2013-05-31 09:54:00,74.0,64.0,30.03,South,180,2.0,5.0,71,0.00,,CLR,0.00,VWS V14.01,2013-05-31 13:54:00,
2013-05-31 09:59:00,74.5,64.5,30.03,WSW,248,2.0,3.0,71,0.00,,CLR,0.00,VWS V14.01,2013-05-31 13:59:00,
2013-05-31 10:00:00,74.9,63.6,30.02,SW,229,2.0,5.0,68,0.00,,,0.00,VWS V14.01,2013-05-31 14:00:00,
2013-05-31 10:04:00,74.8,64.0,30.03,West,260,1.0,5.0,69,0.00,,CLR,0.00,VWS V14.01,2013-05-31 14:04:00,
2013-05-31 10:09:00,75.1,64.2,30.02,SW,232,3.0,4.0,69,0.00,,CLR,0.00,VWS V14.01,2013-05-31 14:09:00,
2013-05-31 10:10:00,75.2,63.1,30.02,SW,236,2.0,6.0,66,0.00,,,0.00,VWS V14.01,2013-05-31 14:10:00,
2013-05-31 10:14:00,75.4,63.7,30.02,West,268,2.0,5.0,67,0.00,,CLR,0.00,VWS V14.01,2013-05-31 14:14:00,
2013-05-31 10:19:00,75.4,64.1,30.02,South,175,4.0,4.0,68,0.00,,CLR,0.00,VWS V14.01,2013-05-31 14:19:00,
2013-05-31 10:20:00,75.8,63.6,30.02,SSW,193,1.0,6.0,66,0.00,,,0.00,VWS V14.01,2013-05-31 14:20:00,
2013-05-31 10:24:00,75.8,63.2,30.02,WSW,238,4.0,5.0,65,0.00,,CLR,0.00,VWS V14.01,2013-05-31 14:24:00,
2013-05-31 10:29:00,75.9,64.2,30.02,South,180,1.0,5.0,67,0.00,,CLR,0.00,VWS V14.01,2013-05-31 14:29:00,
2013-05-31 10:30:00,76.8,64.2,30.02,WSW,257,3.0,7.0,65,0.00,,,0.00,VWS V14.01,2013-05-31 14:30:00,
2013-05-31 10:34:00,76.4,63.8,30.02,SSW,199,0.0,5.0,65,0.00,,CLR,0.00,VWS V14.01,2013-05-31 14:34:00,
2013-05-31 10:39:00,76.9,63.4,30.02,West,279,7.0,8.0,63,0.00,,CLR,0.00,VWS V14.01,2013-05-31 14:39:00,
2013-05-31 10:40:00,76.8,62.3,30.02,West,281,4.0,10.0,61,0.00,,,0.00,VWS V14.01,2013-05-31 14:40:00,
2013-05-31 10:44:00,76.8,61.9,30.02,West,281,6.0,10.0,60,0.00,,CLR,0.00,VWS V14.01,2013-05-31 14:44:00,
2013-05-31 10:49:00,76.9,62.9,30.02,West,281,3.0,5.0,62,0.00,,CLR,0.00,VWS V14.01,2013-05-31 14:49:00,
2013-05-31 10:50:00,77.2,62.7,30.02,WSW,252,5.0,12.0,61,0.00,,,0.00,VWS V14.01,2013-05-31 14:50:00,
2013-05-31 10:54:00,77.2,62.7,30.02,WNW,283,5.0,10.0,61,0.00,,CLR,0.00,VWS V14.01,2013-05-31 14:54:00,
2013-05-31 10:59:00,77.3,62.8,30.02,SW,230,7.0,7.0,61,0.00,,CLR,0.00,VWS V14.01,2013-05-31 14:59:00,
2013-05-31 11:00:00,76.9,62.0,30.02,West,261,2.0,10.0,60,0.00,,,0.00,VWS V14.01,2013-05-31 15:00:00,
2013-05-31 11:04:00,77.0,62.5,30.02,WSW,249,3.0,10.0,61,0.00,,CLR,0.00,VWS V14.01,2013-05-31 15:04:00,
2013-05-31 11:09:00,77.0,62.5,30.02,West,269,4.0,5.0,61,0.00,,CLR,0.00,VWS V14.01,2013-05-31 15:09:00,
2013-05-31 11:10:00,77.9,62.4,30.02,WNW,285,4.0,11.0,59,0.00,,,0.00,VWS V14.01,2013-05-31 15:10:00,
2013-05-31 11:14:00,77.8,62.3,30.02,West,274,6.0,11.0,59,0.00,,CLR,0.00,VWS V14.01,2013-05-31 15:14:00,
2013-05-31 11:19:00,77.7,62.2,30.02,WNW,290,4.0,7.0,59,0.00,,CLR,0.00,VWS V14.01,2013-05-31 15:19:00,
2013-05-31 11:20:00,77.8,62.8,30.02,SW,232,3.0,10.0,60,0.00,,,0.00,VWS V14.01,2013-05-31 15:20:00,
2013-05-31 11:24:00,78.1,63.1,30.02,SW,234,6.0,10.0,60,0.00,,CLR,0.00,VWS V14.01,2013-05-31 15:24:00,
2013-05-31 11:29:00,77.8,62.8,30.02,SW,233,6.0,6.0,60,0.00,,CLR,0.00,VWS V14.01,2013-05-31 15:29:00,
2013-05-31 11:30:00,78.9,63.8,30.02,WNW,292,7.0,12.0,60,0.00,,,0.00,VWS V14.01,2013-05-31 15:30:00,
2013-05-31 11:34:00,78.2,63.2,30.02,WNW,296,7.0,12.0,60,0.00,,CLR,0.00,VWS V14.01,2013-05-31 15:34:00,
2013-05-31 11:39:00,78.7,61.7,30.02,WNW,298,10.0,11.0,56,0.00,,CLR,0.00,VWS V14.01,2013-05-31 15:39:00,
2013-05-31 11:40:00,78.9,63.4,30.02,West,281,7.0,11.0,59,0.00,,,0.00,VWS V14.01,2013-05-31 15:40:00,
2013-05-31 11:44:00,79.0,63.0,30.02,WSW,254,6.0,11.0,58,0.00,,CLR,0.00,VWS V14.01,2013-05-31 15:44:00,
2013-05-31 11:49:00,79.1,63.6,30.02,West,281,7.0,7.0,59,0.00,,CLR,0.00,VWS V14.01,2013-05-31 15:49:00,
2013-05-31 11:50:00,78.8,63.3,30.02,WSW,255,5.0,9.0,59,0.00,,,0.00,VWS V14.01,2013-05-31 15:50:00,
2013-05-31 11:54:00,78.9,61.9,30.02,WSW,253,4.0,9.0,56,0.00,,CLR,0.00,VWS V14.01,2013-05-31 15:54:00,
2013-05-31 12:00:00,78.6,63.1,30.02,WSW,255,3.0,5.0,59,0.00,,CLR,0.00,VWS V14.01,2013-05-31 16:00:00,
2013-05-31 12:05:00,78.8,62.8,30.02,West,267,5.0,10.0,58,0.00,,CLR,0.00,VWS V14.01,2013-05-31 16:05:00,
2013-05-31 12:10:00,78.8,62.8,30.01,SSW,213,9.0,12.0,58,0.00,,CLR,0.00,VWS V14.01,2013-05-31 16:10:00,
2013-05-31 12:15:00,79.1,62.6,30.01,West,268,4.0,12.0,57,0.00,,CLR,0.00,VWS V14.01,2013-05-31 16:15:00,
2013-05-31 12:20:00,78.9,63.8,30.01,West,264,3.0,6.0,60,0.00,,CLR,0.00,VWS V14.01,2013-05-31 16:20:00,
2013-05-31 12:25:00,79.1,61.6,30.02,West,279,4.0,11.0,55,0.00,,CLR,0.00,VWS V14.01,2013-05-31 16:25:00,
2013-05-31 12:30:00,79.2,61.1,30.02,West,269,6.0,10.0,54,0.00,,CLR,0.00,VWS V14.01,2013-05-31 16:30:00,
2013-05-31 12:35:00,79.2,61.7,30.02,WNW,290,0.0,10.0,55,0.00,,CLR,0.00,VWS V14.01,2013-05-31 16:35:00,
2013-05-31 12:40:00,79.7,62.6,30.01,NW,321,6.0,9.0,56,0.00,,CLR,0.00,VWS V14.01,2013-05-31 16:40:00,
2013-05-31 12:45:00,79.4,62.3,30.01,WNW,283,3.0,11.0,56,0.00,,CLR,0.00,VWS V14.01,2013-05-31 16:45:00,
2013-05-31 12:50:00,79.4,62.3,30.01,WNW,298,10.0,11.0,56,0.00,,CLR,0.00,VWS V14.01,2013-05-31 16:50:00,
2013-05-31 12:55:00,79.2,62.7,30.01,West,261,5.0,11.0,57,0.00,,CLR,0.00,VWS V14.01,2013-05-31 16:55:00,
2013-05-31 13:00:00,80.0,61.9,30.01,West,259,4.0,5.0,54,0.00,,CLR,0.00,VWS V14.01,2013-05-31 17:00:00,
2013-05-31 13:05:00,79.9,62.3,30.01,WSW,246,3.0,7.0,55,0.00,,CLR,0.00,VWS V14.01,2013-05-31 17:05:00,
2013-05-31 13:10:00,81.0,63.8,30.00,South,180,3.0,6.0,56,0.00,,CLR,0.00,VWS V14.01,2013-05-31 17:10:00,
2013-05-31 13:15:00,81.6,62.8,30.00,South,190,5.0,7.0,53,0.00,,CLR,0.00,VWS V14.01,2013-05-31 17:15:00,
2013-05-31 13:20:00,80.6,62.4,30.00,WSW,250,2.0,10.0,54,0.00,,CLR,0.00,VWS V14.01,2013-05-31 17:20:00,
2013-05-31 13:25:00,81.2,63.5,30.00,NNW,347,5.0,10.0,55,0.00,,CLR,0.00,VWS V14.01,2013-05-31 17:25:00,
2013-05-31 13:30:00,80.9,61.1,30.00,NNW,329,6.0,11.0,51,0.00,,CLR,0.00,VWS V14.01,2013-05-31 17:30:00,
2013-05-31 13:35:00,80.9,62.2,30.00,SW,216,0.0,11.0,53,0.00,,CLR,0.00,VWS V14.01,2013-05-31 17:35:00,
2013-05-31 13:40:00,80.7,62.5,30.00,SW,221,4.0,6.0,54,0.00,,CLR,0.00,VWS V14.01,2013-05-31 17:40:00,
2013-05-31 13:45:00,80.3,61.6,30.00,SSE,167,0.0,6.0,53,0.00,,CLR,0.00,VWS V14.01,2013-05-31 17:45:00,
2013-05-31 13:50:00,80.3,61.1,30.00,SE,140,2.0,5.0,52,0.00,,CLR,0.00,VWS V14.01,2013-05-31 17:50:00,
2013-05-31 13:55:00,81.2,61.9,29.99,WNW,292,6.0,6.0,52,0.00,,CLR,0.00,VWS V14.01,2013-05-31 17:55:00,
2013-05-31 14:00:00,82.3,65.1,29.99,SSW,203,0.0,9.0,56,0.00,,CLR,0.00,VWS V14.01,2013-05-31 18:00:00,
2013-05-31 14:05:00,81.9,62.6,29.99,West,265,7.0,9.0,52,0.00,,FEW055,0.00,VWS V14.01,2013-05-31 18:05:00,
2013-05-31 14:10:00,81.2,61.9,29.99,WSW,258,8.0,8.0,52,0.00,,FEW055,0.00,VWS V14.01,2013-05-31 18:10:00,
2013-05-31 14:15:00,81.3,61.5,29.99,SSW,195,3.0,13.0,51,0.00,,FEW055,0.00,VWS V14.01,2013-05-31 18:15:00,
2013-05-31 14:20:00,81.7,61.3,29.99,WNW,289,7.0,7.0,50,0.00,,FEW055,0.00,VWS V14.01,2013-05-31 18:20:00,
2013-05-31 14:25:00,82.1,62.8,29.98,West,276,3.0,10.0,52,0.00,,FEW055,0.00,VWS V14.01,2013-05-31 18:25:00,
2013-05-31 14:30:00,82.2,61.7,29.98,West,265,4.0,12.0,50,0.00,,FEW055,0.00,VWS V14.01,2013-05-31 18:30:00,
2013-05-31 14:35:00,81.8,60.8,29.98,West,271,3.0,12.0,49,0.00,,FEW055,0.00,VWS V14.01,2013-05-31 18:35:00,
2013-05-31 14:40:00,81.4,61.0,29.97,WNW,286,8.0,10.0,50,0.00,,FEW055,0.00,VWS V14.01,2013-05-31 18:40:00,
2013-05-31 14:45:00,81.2,61.9,29.97,SW,236,5.0,10.0,52,0.00,,FEW055,0.00,VWS V14.01,2013-05-31 18:45:00,
2013-05-31 14:50:00,82.4,65.1,29.97,South,178,2.0,7.0,56,0.00,,FEW055,0.00,VWS V14.01,2013-05-31 18:50:00,
2013-05-31 14:55:00,82.1,61.1,29.96,West,259,3.0,7.0,49,0.00,,FEW055,0.00,VWS V14.01,2013-05-31 18:55:00,
2013-05-31 15:00:00,82.1,61.6,29.96,SE,129,0.0,5.0,50,0.00,,FEW055,0.00,VWS V14.01,2013-05-31 19:00:00,
2013-05-31 15:05:00,82.3,62.9,29.96,ESE,119,0.0,5.0,52,0.00,,FEW070,0.00,VWS V14.01,2013-05-31 19:05:00,
2013-05-31 15:10:00,82.1,60.5,29.96,West,277,4.0,9.0,48,0.00,,FEW070,0.00,VWS V14.01,2013-05-31 19:10:00,
2013-05-31 15:15:00,82.8,62.8,29.96,SSW,196,3.0,9.0,51,0.00,,FEW070,0.00,VWS V14.01,2013-05-31 19:15:00,
2013-05-31 15:20:00,83.1,60.2,29.96,SW,232,5.0,8.0,46,0.00,,FEW070,0.00,VWS V14.01,2013-05-31 19:20:00,
2013-05-31 15:25:00,82.5,59.0,29.95,SSE,165,2.0,11.0,45,0.00,,FEW070,0.00,VWS V14.01,2013-05-31 19:25:00,
2013-05-31 15:30:00,82.3,58.9,29.95,WSW,238,0.0,11.0,45,0.00,,FEW070,0.00,VWS V14.01,2013-05-31 19:30:00,
2013-05-31 15:35:00,82.5,61.4,29.95,West,259,6.0,11.0,49,0.00,,FEW070,0.00,VWS V14.01,2013-05-31 19:35:00,
2013-05-31 15:40:00,82.6,62.1,29.94,West,271,11.0,11.0,50,0.00,,FEW070,0.00,VWS V14.01,2013-05-31 19:40:00,
2013-05-31 15:45:00,83.3,59.8,29.94,WSW,241,2.0,14.0,45,0.00,,FEW070,0.00,VWS V14.01,2013-05-31 19:45:00,
2013-05-31 15:50:00,83.4,58.6,29.94,SW,232,4.0,11.0,43,0.00,,FEW070,0.00,VWS V14.01,2013-05-31 19:50:00,
2013-05-31 15:56:00,82.7,59.2,29.94,West,261,1.0,11.0,45,0.00,,FEW070,0.00,VWS V14.01,2013-05-31 19:56:00,
2013-05-31 16:00:00,83.5,61.8,29.93,SSW,193,4.0,10.0,48,0.00,,,0.00,VWS V14.01,2013-05-31 20:00:00,
2013-05-31 16:01:00,83.4,60.5,29.94,NW,307,3.0,9.0,46,0.00,,FEW070,0.00,VWS V14.01,2013-05-31 20:01:00,
2013-05-31 16:06:00,83.3,58.5,29.94,WSW,255,3.0,10.0,43,0.00,,FEW060,0.00,VWS V14.01,2013-05-31 20:06:00,
2013-05-31 16:10:00,83.7,59.5,29.93,West,277,4.0,12.0,44,0.00,,,0.00,VWS V14.01,2013-05-31 20:10:00,
2013-05-31 16:11:00,83.4,59.8,29.93,WSW,250,4.0,10.0,45,0.00,,FEW060,0.00,VWS V14.01,2013-05-31 20:11:00,
2013-05-31 16:16:00,83.7,60.7,29.93,West,259,12.0,12.0,46,0.00,,FEW060,0.00,VWS V14.01,2013-05-31 20:16:00,
2013-05-31 16:20:00,83.5,59.3,29.93,WSW,238,9.0,12.0,44,0.00,,,0.00,VWS V14.01,2013-05-31 20:20:00,
2013-05-31 16:21:00,83.8,59.6,29.93,WSW,241,3.0,7.0,44,0.00,,FEW060,0.00,VWS V14.01,2013-05-31 20:21:00,
2013-05-31 16:26:00,83.5,58.0,29.93,West,280,5.0,12.0,42,0.00,,FEW060,0.00,VWS V14.01,2013-05-31 20:26:00,
2013-05-31 16:30:00,83.6,59.4,29.92,West,275,3.0,12.0,44,0.00,,,0.00,VWS V14.01,2013-05-31 20:30:00,
2013-05-31 16:31:00,83.6,60.0,29.93,WSW,252,2.0,12.0,45,0.00,,FEW060,0.00,VWS V14.01,2013-05-31 20:31:00,
2013-05-31 16:36:00,83.6,58.8,29.93,WSW,250,1.0,12.0,43,0.00,,FEW060,0.00,VWS V14.01,2013-05-31 20:36:00,
2013-05-31 16:40:00,83.6,60.0,29.92,West,262,9.0,13.0,45,0.00,,,0.00,VWS V14.01,2013-05-31 20:40:00,
2013-05-31 16:41:00,83.7,58.8,29.92,WNW,292,5.0,11.0,43,0.00,,FEW060,0.00,VWS V14.01,2013-05-31 20:41:00,
2013-05-31 16:46:00,83.6,58.1,29.92,WSW,254,9.0,13.0,42,0.00,,FEW060,0.00,VWS V14.01,2013-05-31 20:46:00,
2013-05-31 16:50:00,83.8,58.9,29.92,WSW,252,2.0,9.0,43,0.00,,,0.00,VWS V14.01,2013-05-31 20:50:00,
2013-05-31 16:51:00,83.6,59.4,29.92,SW,228,1.0,9.0,44,0.00,,FEW060,0.00,VWS V14.01,2013-05-31 20:51:00,
2013-05-31 16:56:00,83.9,59.0,29.92,SSW,210,4.0,9.0,43,0.00,,FEW060,0.00,VWS V14.01,2013-05-31 20:56:00,
2013-05-31 17:00:00,84.0,59.8,29.92,South,182,2.0,11.0,44,0.00,,,0.00,VWS V14.01,2013-05-31 21:00:00,
2013-05-31 17:01:00,84.0,58.5,29.92,West,259,11.0,11.0,42,0.00,,FEW060,0.00,VWS V14.01,2013-05-31 21:01:00,
2013-05-31 17:06:00,84.0,59.8,29.92,WSW,246,4.0,11.0,44,0.00,,FEW060,0.00,VWS V14.01,2013-05-31 21:06:00,
2013-05-31 17:10:00,84.2,59.3,29.92,WNW,287,5.0,12.0,43,0.00,,,0.00,VWS V14.01,2013-05-31 21:10:00,
2013-05-31 17:11:00,84.0,58.5,29.92,West,263,8.0,11.0,42,0.00,,FEW060,0.00,VWS V14.01,2013-05-31 21:11:00,
2013-05-31 17:16:00,84.1,59.9,29.92,West,267,2.0,12.0,44,0.00,,FEW060,0.00,VWS V14.01,2013-05-31 21:16:00,
2013-05-31 17:20:00,83.7,58.8,29.92,West,275,7.0,12.0,43,0.00,,,0.00,VWS V14.01,2013-05-31 21:20:00,
2013-05-31 17:21:00,84.1,59.2,29.92,WSW,255,9.0,12.0,43,0.00,,FEW060,0.00,VWS V14.01,2013-05-31 21:21:00,
2013-05-31 17:26:00,83.6,57.4,29.92,WSW,258,7.0,12.0,41,0.00,,FEW060,0.00,VWS V14.01,2013-05-31 21:26:00,
2013-05-31 17:30:00,84.0,58.5,29.91,West,279,6.0,10.0,42,0.00,,,0.00,VWS V14.01,2013-05-31 21:30:00,
2013-05-31 17:31:00,83.7,57.5,29.92,SW,217,3.0,10.0,41,0.00,,FEW060,0.00,VWS V14.01,2013-05-31 21:31:00,
2013-05-31 17:36:00,83.9,57.7,29.92,West,275,5.0,10.0,41,0.00,,FEW060,0.00,VWS V14.01,2013-05-31 21:36:00,
2013-05-31 17:40:00,83.1,59.0,29.91,SW,229,4.0,9.0,44,0.00,,,0.00,VWS V14.01,2013-05-31 21:40:00,
2013-05-31 17:41:00,84.0,59.1,29.91,West,265,4.0,6.0,43,0.00,,FEW060,0.00,VWS V14.01,2013-05-31 21:41:00,
2013-05-31 17:46:00,83.3,57.8,29.91,SW,229,3.0,9.0,42,0.00,,FEW060,0.00,VWS V14.01,2013-05-31 21:46:00,
2013-05-31 17:50:00,83.4,59.8,29.91,WNW,295,4.0,6.0,45,0.00,,,0.00,VWS V14.01,2013-05-31 21:50:00,
2013-05-31 17:51:00,83.1,59.6,29.91,SW,223,2.0,5.0,45,0.00,,FEW060,0.00,VWS V14.01,2013-05-31 21:51:00,
2013-05-31 17:56:00,83.4,59.2,29.91,West,269,5.0,6.0,44,0.00,,FEW060,0.00,VWS V14.01,2013-05-31 21:56:00,
2013-05-31 18:00:00,83.3,59.8,29.91,WNW,287,4.0,8.0,45,0.00,,,0.00,VWS V14.01,2013-05-31 22:00:00,
2013-05-31 18:01:00,83.7,61.3,29.91,WNW,295,5.0,5.0,47,0.00,,FEW065,0.00,VWS V14.01,2013-05-31 22:01:00,
2013-05-31 18:06:00,83.4,59.8,29.91,WNW,288,6.0,8.0,45,0.00,,FEW065,0.00,VWS V14.01,2013-05-31 22:06:00,
2013-05-31 18:10:00,83.1,60.2,29.91,WSW,244,6.0,13.0,46,0.00,,,0.00,VWS V14.01,2013-05-31 22:10:00,
2013-05-31 18:11:00,83.5,60.6,29.91,West,267,10.0,10.0,46,0.00,,FEW065,0.00,VWS V14.01,2013-05-31 22:11:00,
2013-05-31 18:16:00,83.1,59.6,29.91,WSW,253,6.0,13.0,45,0.00,,FEW065,0.00,VWS V14.01,2013-05-31 22:16:00,
2013-05-31 18:20:00,82.3,62.4,29.92,West,276,9.0,12.0,51,0.00,,,0.00,VWS V14.01,2013-05-31 22:20:00,
2013-05-31 18:21:00,83.0,60.7,29.91,West,275,7.0,11.0,47,0.00,,FEW065,0.00,VWS V14.01,2013-05-31 22:21:00,
2013-05-31 18:26:00,82.4,61.9,29.92,WNW,282,6.0,12.0,50,0.00,,FEW065,0.00,VWS V14.01,2013-05-31 22:26:00,
2013-05-31 18:30:00,81.3,62.5,29.92,NW,320,10.0,12.0,53,0.00,,,0.00,VWS V14.01,2013-05-31 22:30:00,
2013-05-31 18:31:00,82.0,62.1,29.92,WNW,302,5.0,10.0,51,0.00,,FEW065,0.00,VWS V14.01,2013-05-31 22:31:00,
2013-05-31 18:36:00,81.3,62.0,29.92,WNW,286,6.0,12.0,52,0.00,,FEW065,0.00,VWS V14.01,2013-05-31 22:36:00,
2013-05-31 18:40:00,80.9,62.2,29.92,WNW,302,5.0,13.0,53,0.00,,,0.00,VWS V14.01,2013-05-31 22:40:00,
2013-05-31 18:41:00,81.2,62.5,29.92,WNW,301,6.0,11.0,53,0.00,,FEW065,0.00,VWS V14.01,2013-05-31 22:41:00,
2013-05-31 18:46:00,81.0,62.3,29.92,WNW,290,10.0,13.0,53,0.00,,FEW065,0.00,VWS V14.01,2013-05-31 22:46:00,
2013-05-31 18:50:00,80.5,62.3,29.92,WNW,290,7.0,12.0,54,0.00,,,0.00,VWS V14.01,2013-05-31 22:50:00,
2013-05-31 18:51:00,80.8,62.1,29.92,WNW,288,5.0,11.0,53,0.00,,FEW065,0.00,VWS V14.01,2013-05-31 22:51:00,
2013-05-31 18:56:00,80.6,62.4,29.92,West,281,7.0,12.0,54,0.00,,FEW065,0.00,VWS V14.01,2013-05-31 22:56:00,
2013-05-31 19:00:00,79.6,62.5,29.92,WNW,290,10.0,13.0,56,0.00,,,0.00,VWS V14.01,2013-05-31 23:00:00,
2013-05-31 19:01:00,80.1,62.5,29.92,West,281,4.0,10.0,55,0.00,,CLR,0.00,VWS V14.01,2013-05-31 23:01:00,
2013-05-31 19:06:00,79.6,62.0,29.92,West,276,8.0,13.0,55,0.00,,CLR,0.00,VWS V14.01,2013-05-31 23:06:00,
2013-05-31 19:10:00,79.3,62.3,29.92,NW,307,8.0,13.0,56,0.00,,,0.00,VWS V14.01,2013-05-31 23:10:00,
2013-05-31 19:11:00,79.5,62.5,29.92,WNW,292,8.0,13.0,56,0.00,,CLR,0.00,VWS V14.01,2013-05-31 23:11:00,
2013-05-31 19:16:00,79.4,62.9,29.92,WNW,288,7.0,13.0,57,0.00,,CLR,0.00,VWS V14.01,2013-05-31 23:16:00,
2013-05-31 19:20:00,79.3,62.8,29.91,WNW,284,4.0,12.0,57,0.00,,,0.00,VWS V14.01,2013-05-31 23:20:00,
2013-05-31 19:21:00,79.2,62.2,29.92,WNW,288,6.0,12.0,56,0.00,,CLR,0.00,VWS V14.01,2013-05-31 23:21:00,
2013-05-31 19:26:00,79.3,62.8,29.91,West,281,5.0,12.0,57,0.00,,CLR,0.00,VWS V14.01,2013-05-31 23:26:00,
2013-05-31 19:30:00,78.8,61.8,29.92,WNW,290,6.0,11.0,56,0.00,,,0.00,VWS V14.01,2013-05-31 23:30:00,
2013-05-31 19:31:00,79.1,62.6,29.91,WNW,282,4.0,6.0,57,0.00,,CLR,0.00,VWS V14.01,2013-05-31 23:31:00,
2013-05-31 19:36:00,78.9,61.9,29.91,West,277,11.0,11.0,56,0.00,,CLR,0.00,VWS V14.01,2013-05-31 23:36:00,
2013-05-31 19:40:00,78.2,61.7,29.92,WSW,244,3.0,10.0,57,0.00,,,0.00,VWS V14.01,2013-05-31 23:40:00,
2013-05-31 19:41:00,78.6,62.1,29.92,West,267,6.0,8.0,57,0.00,,CLR,0.00,VWS V14.01,2013-05-31 23:41:00,
2013-05-31 19:46:00,78.3,61.8,29.92,WSW,244,5.0,10.0,57,0.00,,CLR,0.00,VWS V14.01,2013-05-31 23:46:00,
2013-05-31 19:50:00,76.7,62.2,29.93,SW,221,6.0,7.0,61,0.00,,,0.00,VWS V14.01,2013-05-31 23:50:00,
2013-05-31 19:51:00,77.7,62.7,29.92,ESE,120,1.0,6.0,60,0.00,,CLR,0.00,VWS V14.01,2013-05-31 23:51:00,
2013-05-31 19:56:00,76.9,62.4,29.93,South,182,4.0,7.0,61,0.00,,CLR,0.00,VWS V14.01,2013-05-31 23:56:00,
2013-05-31 20:00:00,75.7,61.3,29.94,SW,227,0.0,9.0,61,0.00,,,0.00,VWS V14.01,2013-06-01 00:00:00,
2013-05-31 20:01:00,76.1,61.7,29.93,WNW,296,2.0,9.0,61,0.00,,BKN080,0.00,VWS V14.01,2013-06-01 00:01:00,
2013-05-31 20:06:00,75.8,61.4,29.93,SW,227,0.0,9.0,61,0.00,,BKN080,0.00,VWS V14.01,2013-06-01 00:06:00,
2013-05-31 20:10:00,75.0,61.1,29.94,West,277,1.0,5.0,62,0.00,,,0.00,VWS V14.01,2013-06-01 00:10:00,
2013-05-31 20:11:00,75.3,61.4,29.94,West,277,2.0,5.0,62,0.00,,BKN080,0.00,VWS V14.01,2013-06-01 00:11:00,
2013-05-31 20:16:00,75.0,61.1,29.94,West,277,2.0,5.0,62,0.00,,BKN080,0.00,VWS V14.01,2013-06-01 00:16:00,
2013-05-31 20:20:00,74.7,60.8,29.93,West,277,0.0,2.0,62,0.00,,,0.00,VWS V14.01,2013-06-01 00:20:00,
2013-05-31 20:21:00,74.9,61.0,29.94,West,276,1.0,2.0,62,0.00,,BKN080,0.00,VWS V14.01,2013-06-01 00:21:00,
2013-05-31 20:26:00,74.7,60.8,29.93,West,277,0.0,2.0,62,0.00,,BKN080,0.00,VWS V14.01,2013-06-01 00:26:00,
2013-05-31 20:30:00,74.0,60.6,29.92,West,276,0.0,3.0,63,0.00,,,0.00,VWS V14.01,2013-06-01 00:30:00,
2013-05-31 20:31:00,74.4,60.5,29.93,West,277,1.0,3.0,62,0.00,,BKN080,0.00,VWS V14.01,2013-06-01 00:31:00,
2013-05-31 20:36:00,74.1,60.7,29.93,West,277,0.0,3.0,63,0.00,,BKN080,0.00,VWS V14.01,2013-06-01 00:36:00,
2013-05-31 20:40:00,73.4,60.0,29.92,West,277,1.0,3.0,63,0.00,,,0.00,VWS V14.01,2013-06-01 00:40:00,
2013-05-31 20:41:00,73.7,60.3,29.92,West,277,0.0,1.0,63,0.00,,BKN080,0.00,VWS V14.01,2013-06-01 00:41:00,
2013-05-31 20:46:00,73.4,60.0,29.92,West,277,0.0,3.0,63,0.00,,BKN080,0.00,VWS V14.01,2013-06-01 00:46:00,
2013-05-31 20:50:00,73.2,60.3,29.92,West,276,0.0,2.0,64,0.00,,,0.00,VWS V14.01,2013-06-01 00:50:00,
2013-05-31 20:51:00,73.5,60.2,29.92,West,277,0.0,2.0,63,0.00,,BKN080,0.00,VWS V14.01,2013-06-01 00:51:00,
2013-05-31 20:56:00,73.3,60.0,29.92,West,276,0.0,2.0,63,0.00,,BKN080,0.00,VWS V14.01,2013-06-01 00:56:00,
2013-05-31 21:00:00,72.6,60.2,29.93,West,277,3.0,4.0,65,0.00,,,0.00,VWS V14.01,2013-06-01 01:00:00,
2013-05-31 21:01:00,72.9,60.0,29.92,West,277,0.0,0.0,64,0.00,,BKN080,0.00,VWS V14.01,2013-06-01 01:01:00,
2013-05-31 21:06:00,72.7,60.3,29.92,West,276,2.0,2.0,65,0.00,,BKN080,0.00,VWS V14.01,2013-06-01 01:06:00,
2013-05-31 21:10:00,70.3,60.5,29.93,West,277,2.0,4.0,71,0.00,,,0.00,VWS V14.01,2013-06-01 01:10:00,
2013-05-31 21:11:00,71.3,60.6,29.93,West,277,3.0,4.0,69,0.00,,BKN080,0.00,VWS V14.01,2013-06-01 01:11:00,
2013-05-31 21:16:00,70.3,60.5,29.93,West,276,3.0,4.0,71,0.00,,BKN080,0.00,VWS V14.01,2013-06-01 01:16:00,
2013-05-31 21:20:00,70.3,60.9,29.92,West,277,2.0,4.0,72,0.00,,,0.00,VWS V14.01,2013-06-01 01:20:00,
2013-05-31 21:21:00,70.4,61.0,29.93,West,277,1.0,4.0,72,0.00,,BKN080,0.00,VWS V14.01,2013-06-01 01:21:00,
2013-05-31 21:26:00,70.3,60.9,29.92,West,277,2.0,4.0,72,0.00,,BKN080,0.00,VWS V14.01,2013-06-01 01:26:00,
2013-05-31 21:30:00,69.7,61.0,29.92,West,277,2.0,3.0,74,0.00,,,0.00,VWS V14.01,2013-06-01 01:30:00,
2013-05-31 21:31:00,70.3,60.9,29.92,West,277,3.0,3.0,72,0.00,,BKN080,0.00,VWS V14.01,2013-06-01 01:31:00,
2013-05-31 21:37:00,69.8,61.2,29.92,West,277,2.0,3.0,74,0.00,,BKN080,0.00,VWS V14.01,2013-06-01 01:37:00,
2013-05-31 21:40:00,69.2,61.0,29.92,West,276,3.0,4.0,75,0.00,,,0.00,VWS V14.01,2013-06-01 01:40:00,
2013-05-31 21:42:00,69.4,60.8,29.92,West,276,2.0,3.0,74,0.00,,BKN080,0.00,VWS V14.01,2013-06-01 01:42:00,
2013-05-31 21:47:00,69.2,61.0,29.92,West,277,2.0,3.0,75,0.00,,BKN080,0.00,VWS V14.01,2013-06-01 01:47:00,
2013-05-31 21:50:00,68.4,60.9,29.92,West,277,2.0,5.0,77,0.00,,,0.00,VWS V14.01,2013-06-01 01:50:00,
2013-05-31 21:52:00,68.9,61.0,29.92,West,277,3.0,5.0,76,0.00,,BKN080,0.00,VWS V14.01,2013-06-01 01:52:00,
2013-05-31 21:57:00,68.4,60.9,29.92,West,277,2.0,5.0,77,0.00,,BKN080,0.00,VWS V14.01,2013-06-01 01:57:00,
2013-05-31 22:00:00,68.1,60.6,29.93,West,276,2.0,4.0,77,0.00,,,0.00,VWS V14.01,2013-06-01 02:00:00,
2013-05-31 22:02:00,68.3,60.8,29.92,West,276,1.0,2.0,77,0.00,,BKN060,0.00,VWS V14.01,2013-06-01 02:02:00,
2013-05-31 22:07:00,68.2,60.7,29.93,West,276,3.0,4.0,77,0.00,,BKN060,0.00,VWS V14.01,2013-06-01 02:07:00,
2013-05-31 22:10:00,67.5,60.4,29.93,West,277,3.0,3.0,78,0.00,,,0.00,VWS V14.01,2013-06-01 02:10:00,
2013-05-31 22:12:00,67.8,60.7,29.93,West,276,1.0,3.0,78,0.00,,BKN060,0.00,VWS V14.01,2013-06-01 02:12:00,
2013-05-31 22:17:00,67.5,60.4,29.93,West,277,3.0,3.0,78,0.00,,BKN060,0.00,VWS V14.01,2013-06-01 02:17:00,
2013-05-31 22:20:00,66.9,60.2,29.92,West,276,2.0,4.0,79,0.00,,,0.00,VWS V14.01,2013-06-01 02:20:00,
2013-05-31 22:22:00,67.3,60.6,29.92,West,277,3.0,4.0,79,0.00,,BKN060,0.00,VWS V14.01,2013-06-01 02:22:00,
2013-05-31 22:27:00,67.0,60.3,29.92,West,277,3.0,4.0,79,0.00,,BKN060,0.00,VWS V14.01,2013-06-01 02:27:00,
2013-05-31 22:30:00,66.4,60.0,29.92,West,277,3.0,4.0,80,0.00,,,0.00,VWS V14.01,2013-06-01 02:30:00,
2013-05-31 22:32:00,66.6,60.2,29.92,West,277,1.0,4.0,80,0.00,,BKN060,0.00,VWS V14.01,2013-06-01 02:32:00,
2013-05-31 22:37:00,66.5,60.2,29.92,West,277,3.0,4.0,80,0.00,,BKN060,0.00,VWS V14.01,2013-06-01 02:37:00,
2013-05-31 22:40:00,65.7,60.1,29.92,West,277,3.0,4.0,82,0.00,,,0.00,VWS V14.01,2013-06-01 02:40:00,
2013-05-31 22:42:00,66.1,60.1,29.92,West,277,2.0,4.0,81,0.00,,BKN060,0.00,VWS V14.01,2013-06-01 02:42:00,
2013-05-31 22:47:00,65.7,60.1,29.92,West,277,4.0,4.0,82,0.00,,BKN060,0.00,VWS V14.01,2013-06-01 02:47:00,
2013-05-31 22:50:00,65.2,59.6,29.93,West,277,4.0,5.0,82,0.00,,,0.00,VWS V14.01,2013-06-01 02:50:00,
2013-05-31 22:52:00,65.5,59.9,29.93,West,277,4.0,5.0,82,0.00,,BKN060,0.00,VWS V14.01,2013-06-01 02:52:00,
2013-05-31 22:57:00,65.2,59.6,29.93,West,277,5.0,5.0,82,0.00,,BKN060,0.00,VWS V14.01,2013-06-01 02:57:00,
2013-05-31 23:00:00,64.9,59.6,29.92,West,276,4.0,5.0,83,0.00,,,0.00,VWS V14.01,2013-06-01 03:00:00,
2013-05-31 23:02:00,65.0,59.7,29.93,West,277,4.0,5.0,83,0.00,,CLR,0.00,VWS V14.01,2013-06-01 03:02:00,
2013-05-31 23:07:00,64.9,59.6,29.92,West,277,4.0,5.0,83,0.00,,CLR,0.00,VWS V14.01,2013-06-01 03:07:00,
2013-05-31 23:10:00,64.5,59.6,29.92,West,277,3.0,4.0,84,0.00,,,0.00,VWS V14.01,2013-06-01 03:10:00,
2013-05-31 23:12:00,64.7,59.4,29.92,West,277,4.0,4.0,83,0.00,,CLR,0.00,VWS V14.01,2013-06-01 03:12:00,
2013-05-31 23:17:00,64.5,59.6,29.92,West,277,3.0,4.0,84,0.00,,CLR,0.00,VWS V14.01,2013-06-01 03:17:00,
2013-05-31 23:20:00,64.3,59.4,29.92,West,277,0.0,4.0,84,0.00,,,0.00,VWS V14.01,2013-06-01 03:20:00,
2013-05-31 23:22:00,64.4,59.5,29.92,West,276,4.0,4.0,84,0.00,,CLR,0.00,VWS V14.01,2013-06-01 03:22:00,
2013-05-31 23:27:00,64.3,59.4,29.92,West,277,0.0,4.0,84,0.00,,CLR,0.00,VWS V14.01,2013-06-01 03:27:00,
2013-05-31 23:30:00,64.0,59.1,29.92,West,277,4.0,4.0,84,0.00,,,0.00,VWS V14.01,2013-06-01 03:30:00,
2013-05-31 23:32:00,64.2,59.3,29.92,West,276,1.0,4.0,84,0.00,,CLR,0.00,VWS V14.01,2013-06-01 03:32:00,
2013-05-31 23:37:00,64.0,59.1,29.92,West,276,4.0,4.0,84,0.00,,CLR,0.00,VWS V14.01,2013-06-01 03:37:00,
2013-05-31 23:40:00,63.4,59.2,29.92,West,277,2.0,5.0,86,0.00,,,0.00,VWS V14.01,2013-06-01 03:40:00,
2013-05-31 23:42:00,63.6,59.0,29.92,West,277,2.0,5.0,85,0.00,,CLR,0.00,VWS V14.01,2013-06-01 03:42:00,
2013-05-31 23:47:00,63.4,59.2,29.92,West,276,2.0,5.0,86,0.00,,CLR,0.00,VWS V14.01,2013-06-01 03:47:00,
2013-05-31 23:50:00,63.3,59.0,29.92,WSW,241,0.0,7.0,86,0.00,,,0.00,VWS V14.01,2013-06-01 03:50:00,
2013-05-31 23:52:00,63.3,59.0,29.92,West,277,4.0,5.0,86,0.00,,CLR,0.00,VWS V14.01,2013-06-01 03:52:00,
2013-05-31 23:57:00,63.3,59.0,29.92,WSW,241,3.0,7.0,86,0.00,,CLR,0.00,VWS V14.01,2013-06-01 03:57:00,